Location: Bessat
(45.8735°N, 1.9924°E)
Time: 23:04:14
(UTC+00:00)

Cosmos 1461 - Pass Details

Date: 11 May 2021
Orbit: 510 x 653 km, 65.0° (Epoch: 24 June)

Event Time Altitude Azimuth Distance (km) Brightness Sun altitude
Exits shadow 23:07:17 72° 52° (NE) 684 3.2 -25.3°
Drops below altitude 10° 23:11:29 10° 37° (NE) 2,035 6.2 -25.4°
Sets 23:13:45 0° 37° (NE) 2,930 7.1 -25.5°
